User: anonymous   Login
Location: Lombard
(41.8800°N, 88.0080°W)
Time: 12:18:03
(UTC-05:00)
Language:

POLYITAN 1 - Orbit

View from above orbital plane
View from above orbital plane
View from above satellite
View from above satellite

Ground track
Ground track

The orbit data is extracted from the following two-line orbital elements,

1 40042U 14033AJ  22136.78476009  .00004606  00000-0  47879-3 0  9990
2 40042  97.9702  75.0931 0015170 147.1478 213.0685 14.90317811428933
Epoch (UTC): 16 May 2022 18:50:03
Eccentricity: 0.0015170
inclination: 97.9702°
perigee height: 586 km
apogee height: 607 km
right ascension of ascending node: 75.0931°
argument of perigee: 147.1478°
revolutions per day: 14.90317811
mean anomaly at epoch: 213.0685°
orbit number at epoch: 42893

The dashed part of the orbit path shows where the satellite is in the earth's shadow,  

DLR